Visibility
15.0 15.0 15.0 15.0 15.0 15.0 15.0 15.0 15.0 15.0 15.0 11.9 15.0 15.0 15.0 15.0 15.0 15.0 15.0 15.0 15.0 15.0 15.0 15.0 15.0 15.0 2.6 15.0 15.0 15.0 15.0 5.7
15.0 15.0 15.0 15.0 15.0 15.0 15.0 15.0 9.4 15.0 15.0 15.0 15.0 15.0 15.0 15.0 15.0 15.0 15.0 15.0 15.0 15.0 15.0 15.0 15.0 15.0 14.9 15.0 15.0 15.0 3.2 12.0
15.0 15.0 15.0 15.0 15.0 15.0 15.0 15.0 15.0 15.0 15.0 15.0 15.0 15.0 15.0 15.0 15.0 15.0 15.0 15.0 15.0 15.0 15.0 15.0 15.0 15.0 14.7 13.1 15.0 15.0 14.1 15.0
15.0 15.0 15.0 15.0 15.0 15.0 15.0 15.0 15.0 15.0 15.0 15.0 15.0 15.0 15.0 15.0 15.0 15.0 15.0 15.0 15.0 15.0 15.0 15.0 15.0 14.9 15.0 14.2 15.0 14.5 15.0 0.2
15.0 15.0 15.0 15.0 15.0 15.0 15.0 15.0 15.0 15.0 15.0 15.0 15.0 15.0 15.0 15.0 15.0 15.0 15.0 15.0 15.0 15.0 15.0 15.0 15.0 14.6 14.9 14.8 15.0 14.9 15.0 5.1
15.0 15.0 15.0 15.0 15.0 15.0 15.0 15.0 15.0 15.0 15.0 15.0 15.0 15.0 15.0 15.0 15.0 15.0 15.0 15.0 15.0 15.0 14.6 14.9 14.9 15.0 10.5 15.0 15.0 14.7 11.4 15.0
15.0 15.0 15.0 15.0 15.0 12.0 15.0 15.0 15.0 15.0 15.0 15.0 15.0 15.0 15.0 15.0 15.0 15.0 15.0 15.0 15.0 15.0 14.5 15.0 15.0 15.0 15.0 13.2 15.0 8.1 7.1 13.6
15.0 15.0 15.0 15.0 15.0 15.0 3.8 15.0 15.0 15.0 15.0 15.0 15.0 15.0 15.0 15.0 15.0 15.0 15.0 15.0 15.0 15.0 15.0 15.0 3.5 15.0 15.0 15.0 11.8 6.7 13.3 15.0
15.0 15.0 15.0 15.0 15.0 15.0 13.3 13.9 15.0 15.0 15.0 15.0 15.0 15.0 15.0 15.0 15.0 15.0 15.0 15.0 15.0 15.0 15.0 15.0 15.0 15.0 15.0 12.2 6.2 8.3 12.6 3.8
15.0 15.0 15.0 15.0 14.1 2.6 15.0 15.0 15.0 15.0 12.5 15.0 15.0 15.0 15.0 15.0 15.0 15.0 15.0 15.0 15.0 15.0 15.0 15.0 15.0 1.0 15.0 7.5 0.9 1.1 10.4 8.8
15.0 15.0 15.0 15.0 15.0 9.8 7.5 2.2 2.2 9.8 15.0 7.0 15.0 15.0 15.0 15.0 15.0 15.0 15.0 15.0 15.0 15.0 15.0 15.0 3.9 0.6 3.0 4.2 0.3 2.7 9.4 14.9
15.0 15.0 15.0 15.0 15.0 15.0 15.0 10.1 8.2 2.3 2.2 15.0 15.0 14.3 15.0 15.0 15.0 15.0 15.0 15.0 15.0 15.0 15.0 15.0 15.0 0.2 6.6 5.8 0.9 2.0 2.8 3.5
15.0 15.0 15.0 15.0 15.0 14.9 15.0 1.4 8.9 14.4 5.1 11.2 15.0 5.8 15.0 15.0 14.8 15.0 15.0 15.0 15.0 15.0 15.0 15.0 15.0 0.8 15.0 14.6 0.4 3.2 8.3 1.4
15.0 15.0 15.0 15.0 15.0 15.0 15.0 15.0 2.6 15.0 15.0 15.0 14.4 13.7 15.0 11.2 15.0 15.0 15.0 14.3 15.0 15.0 15.0 15.0 15.0 15.0 15.0 15.0 15.0 12.8 3.0 4.5
15.0 15.0 15.0 15.0 15.0 15.0 15.0 14.5 14.1 5.9 12.0 15.0 9.2 15.0 11.3 10.6 15.0 15.0 15.0 15.0 15.0 15.0 15.0 15.0 15.0 15.0 15.0 15.0 15.0 12.9 12.3 5.3
15.0 15.0 15.0 15.0 15.0 14.4 14.5 13.4 6.7 9.7 5.8 9.0 0.4 6.3 12.8 15.0 15.0 14.8 15.0 13.6 15.0 15.0 15.0 15.0 15.0 15.0 15.0 15.0 15.0 15.0 15.0 15.0
15.0 15.0 15.0 13.9 13.5 15.0 15.0 7.1 3.2 13.0 14.8 14.8 5.1 6.0 5.4 15.0 15.0 15.0 15.0 15.0 15.0 15.0 15.0 15.0 15.0 15.0 10.5 3.3 15.0 15.0 13.5 15.0
8.8 0.2 0.2 10.6 1.6 13.8 1.2 9.4 4.6 4.0 7.8 15.0 13.7 11.1 6.7 13.8 15.0 15.0 15.0 15.0 14.5 15.0 15.0 15.0 15.0 15.0 14.7 15.0 15.0 15.0 15.0 15.0
3.0 3.3 0.1 0.0 0.2 6.4 7.6 6.5 8.7 13.2 6.4 10.2 7.4 12.0 10.8 6.9 15.0 15.0 15.0 14.7 15.0 15.0 13.5 12.9 13.7 15.0 15.0 13.6 15.0 15.0 15.0 15.0